Location: LDNL
(36.4545°S, 141.6685°E)
Time: 22:50:12
(UTC+11:00)

Courier 1B Rocket - All Passes

Search period start: 30 January 2023 00:00
Search period end: 09 February 2023 00:00
Orbit: 920 x 1202 km, 28.3° (Epoch: 29 January)

Date Brightness Start Highest point End Pass type
(mag) Time Alt. Az. Time Alt. Az. Time Alt. Az.
30 Jan - 06:35:37 10° NNW 06:41:32 24° NNE 06:47:23 10° ENE daylight
30 Jan - 08:27:26 10° WNW 08:34:38 41° N 08:41:32 10° ENE daylight
30 Jan - 10:20:42 10° WNW 10:27:53 44° N 10:34:39 10° ENE daylight
30 Jan - 12:14:44 10° WNW 12:20:55 29° NNW 12:26:43 10° NE daylight
30 Jan - 14:11:41 10° NW 14:13:27 11° NNW 14:15:10 10° NNW daylight
31 Jan - 05:35:37 10° NNW 05:40:30 18° NNE 05:45:22 10° ENE visible
31 Jan - 07:26:28 10° NW 07:33:28 36° NNE 07:40:18 10° ENE daylight
31 Jan - 09:19:23 10° WNW 09:26:44 46° N 09:33:43 10° ENE daylight
31 Jan - 11:13:09 10° WNW 11:19:54 36° NNW 11:26:17 10° NE daylight
31 Jan - 13:08:17 10° WNW 13:12:38 17° NNW 13:16:50 10° N daylight
01 Feb - 04:36:40 10° N 04:39:30 12° NNE 04:42:22 10° NE visible
01 Feb - 06:25:44 10° NW 06:32:20 30° NNE 06:38:53 10° ENE daylight
01 Feb - 08:18:10 10° WNW 08:25:32 45° N 08:32:40 10° ENE daylight
01 Feb - 10:11:41 10° WNW 10:18:49 41° N 10:25:36 10° ENE daylight
01 Feb - 12:06:06 10° WNW 12:11:46 23° NNW 12:17:08 10° NNE daylight
02 Feb - 05:25:19 10° NNW 05:31:15 24° NNE 05:37:14 10° ENE visible
02 Feb - 07:17:05 10° WNW 07:24:21 41° N 07:31:30 10° ENE daylight
02 Feb - 09:10:18 10° WNW 09:17:41 45° N 09:24:45 10° ENE daylight
02 Feb - 11:04:19 10° WNW 11:10:47 30° NNW 11:16:56 10° NE daylight
02 Feb - 13:01:02 10° NW 13:03:24 12° NNW 13:05:44 10° NNW daylight
03 Feb - 04:25:24 10° NNW 04:30:14 18° NNE 04:35:09 10° ENE visible
03 Feb - 06:16:11 10° NW 06:23:10 36° NNE 06:30:11 10° ENE visible
03 Feb - 08:09:01 10° WNW 08:16:28 47° N 08:23:43 10° ENE daylight
03 Feb - 10:02:44 10° WNW 10:09:44 37° NNW 10:16:24 10° NE daylight
03 Feb - 11:57:50 10° WNW 12:02:33 18° NNW 12:07:05 10° NNE daylight
04 Feb - 03:26:34 10° N 03:29:17 12° NNE 03:32:01 10° NE visible
04 Feb - 05:15:31 10° NW 05:22:02 30° NNE 05:28:41 10° ENE visible
04 Feb - 07:07:52 10° WNW 07:15:14 45° N 07:22:35 10° ENE daylight
04 Feb - 09:01:18 10° WNW 09:08:35 42° N 09:15:38 10° ENE daylight
04 Feb - 10:55:41 10° WNW 11:01:36 24° NNW 11:07:17 10° NNE daylight
05 Feb - 04:15:11 10° NNW 04:20:59 24° NNE 04:26:57 10° ENE visible
05 Feb - 06:06:51 10° WNW 06:14:02 42° N 06:21:19 10° ENE visible
05 Feb - 07:59:58 10° WNW 08:07:23 46° N 08:14:41 10° ENE daylight
05 Feb - 09:53:55 10° WNW 10:00:35 31° NNW 10:07:00 10° NE daylight
05 Feb - 11:50:26 10° NW 11:53:17 12° NNW 11:56:05 10° N daylight
06 Feb - 03:15:22 10° N 03:20:00 18° NNE 03:24:46 10° ENE visible
06 Feb - 05:06:02 10° NW 05:12:52 36° NNE 05:19:55 10° ENE visible
06 Feb - 06:58:46 10° WNW 07:06:10 47° N 07:13:35 10° ENE daylight
06 Feb - 08:52:23 10° WNW 08:59:28 37° NNW 09:06:23 10° NE daylight
06 Feb - 10:47:24 10° WNW 10:52:22 18° NNW 10:57:12 10° NNE daylight
07 Feb - 02:16:46 10° NNE 02:19:06 12° NNE 02:21:28 10° NE visible
07 Feb - 04:05:28 10° NW 04:11:46 30° NNE 04:18:21 10° ENE visible
07 Feb - 05:57:41 10° WNW 06:04:56 45° N 06:12:21 10° ENE visible
07 Feb - 07:51:01 10° WNW 07:58:17 42° N 08:05:31 10° ENE daylight
07 Feb - 09:45:18 10° WNW 09:51:22 25° NNW 09:57:18 10° NNE daylight
08 Feb - 03:05:14 10° NNW 03:10:46 23° NNE 03:16:32 10° ENE visible
08 Feb - 04:56:46 10° WNW 05:03:45 42° N 05:11:00 10° ENE visible
08 Feb - 06:49:46 10° WNW 06:57:05 46° N 07:04:29 10° ENE daylight
08 Feb - 08:43:36 10° WNW 08:50:18 31° NNW 08:56:54 10° NE daylight
08 Feb - 10:39:58 10° NW 10:43:06 13° NNW 10:46:11 10° N daylight
